Time,TemperatureF,DewpointF,PressureIn,WindDirection,WindDirectionDegrees,WindSpeedMPH,WindSpeedGustMPH,Humidity,HourlyPrecipIn,Conditions,Clouds,dailyrainin,SoftwareType,DateUTC
2013-07-30 00:03:00,59.0,55.0,-100.00,SSW,205,1.0,3.0,88,0.00,,,-99.99,,2013-07-30 04:03:00,
2013-07-30 00:43:00,58.0,55.0,-100.00,SW,235,1.0,3.0,89,0.00,,,-99.99,,2013-07-30 04:43:00,
2013-07-30 00:53:00,58.0,55.0,-100.00,SSW,210,1.0,3.0,88,0.00,,,-99.99,,2013-07-30 04:53:00,
2013-07-30 01:13:00,58.0,55.0,-100.00,WSW,245,1.0,3.0,89,0.00,,,-99.99,,2013-07-30 05:13:00,
2013-07-30 01:23:00,57.0,54.0,-100.00,WSW,250,1.0,2.0,89,0.00,,,-99.99,,2013-07-30 05:23:00,
2013-07-30 01:45:00,57.0,54.0,-100.00,SW,220,1.0,3.0,89,0.00,,,-99.99,,2013-07-30 05:45:00,
2013-07-30 01:52:00,57.0,54.0,-100.00,SW,225,0.0,2.0,89,0.00,,,-99.99,,2013-07-30 05:52:00,
2013-07-30 02:13:00,57.0,54.0,-100.00,SSW,195,0.0,3.0,89,0.00,,,-99.99,,2013-07-30 06:13:00,
2013-07-30 02:23:00,57.0,54.0,-100.00,SSW,195,0.0,3.0,89,0.00,,,-99.99,,2013-07-30 06:23:00,
2013-07-30 02:33:00,57.0,54.0,-100.00,West,260,1.0,3.0,90,0.00,,,-99.99,,2013-07-30 06:33:00,
2013-07-30 02:43:00,57.0,54.0,-100.00,West,260,1.0,3.0,90,0.00,,,-99.99,,2013-07-30 06:43:00,
2013-07-30 03:13:00,56.0,54.0,-100.00,SW,235,1.0,4.0,90,0.00,,,-99.99,,2013-07-30 07:13:00,
2013-07-30 03:23:00,56.0,54.0,-100.00,SW,235,1.0,4.0,90,0.00,,,-99.99,,2013-07-30 07:23:00,
2013-07-30 03:33:00,56.0,54.0,-100.00,SW,235,1.0,4.0,90,0.00,,,-99.99,,2013-07-30 07:33:00,
2013-07-30 03:43:00,56.0,53.0,-100.00,WSW,255,1.0,4.0,91,0.00,,,-99.99,,2013-07-30 07:43:00,
2013-07-30 04:23:00,55.0,53.0,-100.00,SW,220,1.0,4.0,91,0.00,,,-99.99,,2013-07-30 08:23:00,
2013-07-30 05:13:00,55.0,52.0,-100.00,SW,215,1.0,3.0,91,0.00,,,-99.99,,2013-07-30 09:13:00,
2013-07-30 05:53:00,55.0,52.0,-100.00,WSW,250,1.0,3.0,91,0.00,,,-99.99,,2013-07-30 09:53:00,
2013-07-30 07:53:00,57.0,54.0,-100.00,West,260,2.0,5.0,87,0.00,,,-99.99,,2013-07-30 11:53:00,
2013-07-30 08:22:00,60.0,55.0,-100.00,WSW,255,2.0,4.0,84,0.00,,,-99.99,,2013-07-30 12:22:00,
2013-07-30 08:33:00,61.0,56.0,-100.00,West,260,2.0,4.0,83,0.00,,,-99.99,,2013-07-30 12:33:00,
2013-07-30 09:02:00,64.0,57.0,-100.00,WSW,255,2.0,4.0,79,0.00,,,-99.99,,2013-07-30 13:02:00,
2013-07-30 09:52:00,69.0,55.0,-100.00,WSW,255,2.0,6.0,60,0.00,,,-99.99,,2013-07-30 13:52:00,
2013-07-30 10:03:00,70.0,56.0,-100.00,West,270,2.0,6.0,61,0.00,,,-99.99,,2013-07-30 14:03:00,
2013-07-30 10:43:00,70.0,54.0,-100.00,WSW,255,4.0,9.0,56,0.00,,,-99.99,,2013-07-30 14:43:00,
2013-07-30 10:53:00,70.0,55.0,-100.00,West,270,3.0,6.0,58,0.00,,,-99.99,,2013-07-30 14:53:00,
2013-07-30 11:12:00,70.0,55.0,-100.00,West,260,1.0,6.0,59,0.00,,,-99.99,,2013-07-30 15:12:00,
2013-07-30 11:23:00,72.0,57.0,-100.00,ENE,60,2.0,6.0,59,0.00,,,-99.99,,2013-07-30 15:23:00,
2013-07-30 11:33:00,69.0,57.0,-100.00,West,275,1.0,5.0,64,0.00,,,-99.99,,2013-07-30 15:33:00,
2013-07-30 11:52:00,72.0,57.0,-100.00,WSW,240,2.0,8.0,60,0.00,,,-99.99,,2013-07-30 15:52:00,
2013-07-30 12:02:00,72.0,56.0,-100.00,WNW,285,4.0,7.0,56,0.00,,,-99.99,,2013-07-30 16:02:00,
2013-07-30 12:52:00,71.0,58.0,-100.00,WSW,250,2.0,6.0,62,0.00,,,-99.99,,2013-07-30 16:52:00,
2013-07-30 13:02:00,72.0,57.0,-100.00,NE,40,2.0,6.0,58,0.00,,,-99.99,,2013-07-30 17:02:00,
2013-07-30 13:12:00,74.0,58.0,-100.00,ENE,70,1.0,6.0,56,0.00,,,-99.99,,2013-07-30 17:12:00,
2013-07-30 13:22:00,73.0,57.0,-100.00,North,0,2.0,7.0,56,0.00,,,-99.99,,2013-07-30 17:22:00,
2013-07-30 13:32:00,73.0,56.0,-100.00,SSW,205,2.0,7.0,55,0.00,,,-99.99,,2013-07-30 17:32:00,
2013-07-30 13:43:00,73.0,56.0,-100.00,West,280,2.0,7.0,55,0.00,,,-99.99,,2013-07-30 17:43:00,
2013-07-30 13:53:00,73.0,57.0,-100.00,ENE,75,2.0,6.0,56,0.00,,,-99.99,,2013-07-30 17:53:00,
2013-07-30 14:03:00,73.0,57.0,-100.00,ENE,75,2.0,6.0,56,0.00,,,-99.99,,2013-07-30 18:03:00,
2013-07-30 14:52:00,72.0,56.0,-100.00,WSW,255,2.0,7.0,57,0.00,,,-99.99,,2013-07-30 18:52:00,
2013-07-30 15:03:00,73.0,56.0,-100.00,NNE,20,3.0,7.0,55,0.00,,,-99.99,,2013-07-30 19:03:00,
2013-07-30 15:52:00,74.0,57.0,-100.00,North,0,2.0,6.0,54,0.00,,,-99.99,,2013-07-30 19:52:00,
2013-07-30 16:02:00,74.0,57.0,-100.00,East,85,2.0,6.0,55,0.00,,,-99.99,,2013-07-30 20:02:00,
2013-07-30 16:12:00,75.0,58.0,-100.00,NE,55,2.0,6.0,55,0.00,,,-99.99,,2013-07-30 20:12:00,
2013-07-30 16:52:00,76.0,58.0,-100.00,NE,40,4.0,7.0,52,0.00,,,-99.99,,2013-07-30 20:52:00,
2013-07-30 17:12:00,76.0,58.0,-100.00,NNE,15,2.0,6.0,52,0.00,,,-99.99,,2013-07-30 21:12:00,
2013-07-30 17:22:00,77.0,58.0,-100.00,NNE,25,3.0,7.0,51,0.00,,,-99.99,,2013-07-30 21:22:00,
2013-07-30 17:32:00,77.0,57.0,-100.00,WNW,290,1.0,7.0,49,0.00,,,-99.99,,2013-07-30 21:32:00,
2013-07-30 17:42:00,76.0,58.0,-100.00,East,85,1.0,6.0,53,0.00,,,-99.99,,2013-07-30 21:42:00,
2013-07-30 17:52:00,76.0,57.0,-100.00,NE,55,1.0,6.0,52,0.00,,,-99.99,,2013-07-30 21:52:00,
2013-07-30 18:02:00,76.0,57.0,-100.00,ENE,60,2.0,6.0,52,0.00,,,-99.99,,2013-07-30 22:02:00,
2013-07-30 18:12:00,74.0,58.0,-100.00,NE,35,1.0,4.0,56,0.00,,,-99.99,,2013-07-30 22:12:00,
2013-07-30 18:32:00,74.0,57.0,-100.00,North,5,2.0,6.0,56,0.00,,,-99.99,,2013-07-30 22:32:00,
2013-07-30 18:43:00,73.0,57.0,-100.00,North,10,1.0,4.0,57,0.00,,,-99.99,,2013-07-30 22:43:00,
2013-07-30 20:22:00,70.0,57.0,-100.00,NNE,20,0.0,2.0,64,0.00,,,-99.99,,2013-07-31 00:22:00,
2013-07-30 21:12:00,65.0,57.0,-100.00,WSW,255,1.0,3.0,76,0.00,,,-99.99,,2013-07-31 01:12:00,
2013-07-30 21:22:00,64.0,57.0,-100.00,SW,220,1.0,4.0,77,0.00,,,-99.99,,2013-07-31 01:22:00,
2013-07-30 21:32:00,64.0,57.0,-100.00,South,185,1.0,3.0,80,0.00,,,-99.99,,2013-07-31 01:32:00,
2013-07-30 21:43:00,64.0,58.0,-100.00,WSW,255,2.0,5.0,81,0.00,,,-99.99,,2013-07-31 01:43:00,
2013-07-30 21:52:00,63.0,58.0,-100.00,WSW,250,1.0,5.0,82,0.00,,,-99.99,,2013-07-31 01:52:00,
2013-07-30 22:12:00,63.0,58.0,-100.00,WSW,255,1.0,4.0,85,0.00,,,-99.99,,2013-07-31 02:12:00,
2013-07-30 22:22:00,62.0,58.0,-100.00,SW,235,1.0,4.0,85,0.00,,,-99.99,,2013-07-31 02:22:00,
2013-07-30 22:32:00,62.0,58.0,-100.00,WSW,250,1.0,3.0,86,0.00,,,-99.99,,2013-07-31 02:32:00,
2013-07-30 22:52:00,61.0,57.0,-100.00,South,180,0.0,6.0,87,0.00,,,-99.99,,2013-07-31 02:52:00,
2013-07-30 23:02:00,61.0,57.0,-100.00,WSW,245,1.0,4.0,86,0.00,,,-99.99,,2013-07-31 03:02:00,